This is the latest recevied weather packets stored in our database for station/object W1QED. If no packets are shown the sender has not sent any weather packets the latest 1 day(s).
| Time | Temp. | Humidity | Pressure | Rain* | Wind** | Luminosity | Snow |
|---|---|---|---|---|---|---|---|
| 1836274725 | 12.78° C | 47% | 1020.7 hPa | 0 mm | 0 m/s | - | - |
| 1836274579 | 12.78° C | 48% | 1020.9 hPa | 0 mm | 0 m/s | - | - |
| 1836274423 | 13.33° C | 46% | 1020.6 hPa | 0 mm | 0 m/s | - | - |
| 1836274275 | 12.78° C | 47% | 1020.8 hPa | 0 mm | 0 m/s | - | - |
| 1836274122 | 13.33° C | 46% | 1020.6 hPa | 0 mm | 0 m/s | - | - |
| 1778067031 | 17.22° C | 61% | 1008.8 hPa | 0 mm | 2.68 m/s, 201° | - | - |
| 1778066731 | 17.22° C | 61% | 1008.9 hPa | 0 mm | 2.24 m/s, 202° | - | - |
| 1778066429 | 17.22° C | 61% | 1009 hPa | 0 mm | 2.24 m/s, 212° | - | - |
| 1778066128 | 17.22° C | 61% | 1009 hPa | 0 mm | 3.13 m/s, 207° | - | - |
| 1778065843 | 16.67° C | 61% | 1009 hPa | 0 mm | 3.13 m/s, 129° | - | - |
| 1778065528 | 16.67° C | 61% | 1009.1 hPa | 0 mm | 3.13 m/s, 218° | - | - |
| 1778065232 | 16.67° C | 61% | 1009.1 hPa | 0 mm | 1.34 m/s, 221° | - | - |
| 1778064927 | 16.67° C | 61% | 1009 hPa | 0 mm | 2.68 m/s, 211° | - | - |
| 1778064625 | 16.67° C | 61% | 1008.9 hPa | 0 mm | 2.24 m/s, 205° | - | - |
| 1778064323 | 16.67° C | 61% | 1008.7 hPa | 0 mm | 1.79 m/s, 167° | - | - |
| 1778064022 | 16.67° C | 61% | 1009 hPa | 0 mm | 3.13 m/s, 240° | - | - |
| 1778063722 | 16.11° C | 61% | 1009 hPa | 0 mm | 2.68 m/s, 204° | - | - |
| 1778063422 | 16.11° C | 62% | 1009 hPa | 0 mm | 2.24 m/s, 147° | - | - |
| 1778063120 | 16.11° C | 62% | 1008.9 hPa | 0 mm | 1.79 m/s, 175° | - | - |
| 1778062819 | 15.56° C | 62% | 1008.8 hPa | 0 mm | 1.34 m/s, 212° | - | - |
| 1778062519 | 15.56° C | 62% | 1008.9 hPa | 0 mm | 1.34 m/s, 221° | - | - |
| 1778062217 | 15.56° C | 62% | 1008.9 hPa | 0 mm | 1.79 m/s, 214° | - | - |
| 1778061622 | 15.56° C | 62% | 1008.8 hPa | 0 mm | 2.24 m/s, 238° | - | - |
| 1778061315 | 15.56° C | 62% | 1008.9 hPa | 0 mm | 1.34 m/s, 217° | - | - |
| 1778061015 | 15.56° C | 62% | 1008.9 hPa | 0 mm | 0.89 m/s, 225° | - | - |
* Rain latest hour (hover to see other rain measurements)
** Current wind speed in m/s (hover to see current wind gust speed)